Wind_Speed
35 37 36 36 39 40 41 41 40 39 41 41 41 41 40 39 39 38 38 38 38 38 37 37 36 36 38 40 43 43 41 37 37 35 35 37 39 40 39 37 37 37 36 36
31 32 32 35 36 36 37 36 36 37 38 40 40 40 40 40 40 40 40 41 41 42 42 41 40 39 39 40 44 46 45 42 40 38 38 40 40 39 38 38 39 38 37 37
28 28 30 31 31 31 32 33 32 33 34 36 38 39 39 40 41 41 43 44 45 45 46 46 46 44 43 42 44 46 47 46 45 43 42 42 40 39 39 40 40 40 39 39
26 25 26 26 26 27 27 28 27 28 30 32 36 41 39 40 43 46 48 49 50 51 51 52 51 50 49 47 46 46 47 49 48 47 45 43 41 41 41 42 42 41 40 39
22 21 22 22 23 23 23 23 25 27 31 34 37 43 43 45 48 52 55 57 58 58 58 58 57 56 54 52 51 49 49 50 50 48 47 46 44 43 43 43 41 40 40 38
20 19 20 20 20 21 22 23 27 31 34 38 41 47 46 49 54 57 60 62 64 65 65 64 63 63 60 57 55 53 52 51 49 49 48 47 46 44 44 43 42 41 40 39
19 19 19 19 20 21 24 26 31 35 39 42 46 51 48 49 53 56 60 62 64 66 68 68 67 66 64 62 60 57 55 52 49 49 48 47 47 45 44 43 43 41 40 39
19 19 19 19 21 23 26 29 33 38 42 44 47 50 47 47 51 54 57 59 61 62 64 66 67 67 66 64 62 60 57 53 50 49 48 48 47 45 44 43 42 40 40 39
19 19 19 21 23 25 28 31 35 39 42 44 45 46 45 46 49 52 54 56 56 55 56 58 60 61 62 63 62 60 58 55 52 50 49 48 46 45 44 43 41 40 40 40
20 20 20 21 24 27 30 32 34 38 41 44 43 44 45 46 48 50 52 54 53 50 49 50 51 53 55 59 60 59 58 55 52 50 49 47 45 45 44 41 40 39 40 40
20 20 20 22 25 28 29 31 33 36 38 41 43 43 43 45 48 50 50 49 48 46 45 44 43 44 48 53 56 57 56 54 52 49 47 45 44 44 42 40 39 39 39 39
19 19 20 23 26 27 27 28 31 34 36 39 42 42 39 44 47 47 46 44 43 43 42 41 39 39 43 48 52 54 54 52 49 46 44 43 43 43 40 39 38 38 38 38
18 18 20 23 24 23 23 25 28 31 33 35 38 40 38 43 46 44 42 40 39 39 39 39 36 36 39 43 48 50 51 48 45 42 42 42 42 40 38 37 36 36 37 37
17 17 19 20 21 19 18 20 23 26 29 32 33 37 37 40 42 41 38 36 35 35 35 34 31 31 35 40 43 45 45 42 40 40 40 41 40 37 36 35 35 35 36 36
15 15 16 17 17 15 14 15 17 22 26 30 31 34 37 38 37 34 32 30 29 27 26 24 24 25 31 36 39 40 39 38 38 38 37 37 35 34 33 33 33 34 35 36
13 13 14 14 13 12 11 11 14 18 22 26 30 31 34 35 32 28 24 21 18 15 13 14 17 22 28 32 34 35 35 35 34 33 32 31 31 31 30 31 32 32 34 36
11 11 12 13 11 8 6 8 12 16 20 24 27 29 31 30 29 26 20 13 8 3 4 10 16 21 25 28 31 31 31 30 29 28 27 27 27 28 28 30 30 33 35 37
9 10 10 10 8 6 4 7 11 15 18 22 25 28 29 29 28 24 21 15 10 8 10 14 18 21 23 26 27 27 26 25 24 23 23 25 28 30 30 31 32 34 36 39
9 9 8 7 6 5 3 6 10 13 16 20 23 26 28 28 27 24 22 19 15 15 16 18 20 21 22 23 23 22 22 22 22 22 23 26 28 28 29 31 33 35 37 39
10 9 8 7 6 5 4 6 9 12 15 18 21 23 25 25 25 24 22 21 19 18 18 19 19 19 19 19 19 19 19 20 21 23 25 27 29 30 31 30 32 34 35 37
12 9 8 8 7 6 5 6 8 10 14 16 18 20 21 22 22 22 21 19 17 15 15 17 17 17 17 16 16 17 18 21 24 25 26 26 25 25 25 27 30 32 34 37
14 11 10 9 9 9 8 8 9 11 14 15 17 18 18 18 18 18 17 16 13 12 11 11 12 14 16 16 17 17 18 18 19 19 18 18 19 21 23 26 29 33 36 39
15 14 12 11 11 11 11 11 12 13 14 14 15 15 14 14 15 14 14 13 12 10 9 7 7 8 10 10 11 11 12 12 12 13 15 16 19 21 24 28 32 35 37 39
17 16 15 14 13 13 12 13 13 13 13 14 13 13 12 12 12 11 10 9 9 8 8 7 6 6 5 5 4 4 5 6 9 12 14 17 20 24 28 31 34 36 38 39
19 19 17 17 16 16 15 14 14 14 13 12 12 10 11 11 11 10 7 6 5 4 4 4 4 4 3 2 0 2 5 8 10 13 16 20 24 28 30 32 34 36 38 40
21 21 20 19 18 17 16 16 15 14 13 12 10 9 9 10 10 9 7 5 3 1 1 2 1 1 0 2 4 6 8 10 13 17 20 24 27 29 31 33 35 37 38 40
Wind_Direction
228 231 233 235 236 237 238 239 241 243 244 241 239 238 240 241 243 246 248 250 253 254 255 255 254 252 250 249 251 254 257 256 256 257 260 262 264 265 266 269 271 273 275 278
227 230 231 234 236 238 241 241 242 243 244 244 242 241 243 245 246 248 250 251 253 255 257 258 257 255 252 250 250 251 254 254 255 257 257 259 261 265 269 271 272 273 275 277
224 225 229 233 236 238 239 240 241 243 245 248 248 245 247 251 254 255 256 255 255 255 256 256 257 256 254 252 250 250 250 252 253 254 256 258 262 266 268 270 272 273 274 276
220 221 225 228 231 234 235 239 242 246 249 252 255 255 250 257 260 261 261 259 258 257 256 256 256 256 255 254 252 251 249 249 250 252 255 258 260 263 265 268 271 273 275 277
213 214 217 219 224 230 235 242 250 256 259 261 263 266 260 264 265 266 266 265 261 259 258 256 255 254 254 253 252 251 250 249 249 250 252 255 257 259 262 266 270 272 274 275
201 201 207 214 224 235 245 253 260 265 268 270 272 274 270 273 276 276 274 273 269 266 262 258 255 253 252 251 251 250 249 249 249 249 250 252 254 257 260 264 267 269 271 274
196 200 210 221 233 246 255 263 269 272 273 275 278 279 280 281 283 283 281 279 276 273 270 265 260 255 251 249 248 248 248 247 247 247 248 250 252 254 257 261 264 267 269 271
204 208 220 232 243 254 262 269 274 278 281 283 286 289 291 291 291 290 288 285 281 277 273 269 265 258 251 247 244 244 245 245 244 244 245 246 249 251 254 257 261 264 266 270
217 224 234 245 255 262 267 272 278 284 287 289 291 294 295 295 295 294 292 290 287 283 277 271 267 260 251 245 241 240 240 240 240 240 241 243 246 248 250 254 257 260 264 268
229 238 244 254 262 267 272 279 285 288 292 294 297 300 305 306 303 300 296 292 289 285 278 272 267 260 249 241 236 235 235 235 235 236 238 241 243 245 248 251 255 259 263 267
238 247 254 262 266 273 280 286 289 292 296 300 304 307 315 310 305 301 296 291 287 281 275 270 264 255 243 234 230 229 229 230 230 232 234 237 240 243 246 250 254 258 263 268
244 254 261 266 272 278 284 289 292 295 300 305 309 314 317 308 304 300 296 290 283 276 271 265 260 251 239 230 223 222 222 223 225 228 231 234 238 242 245 250 254 259 264 270
247 255 264 271 275 281 287 291 294 301 308 314 316 318 318 311 307 302 296 289 282 273 267 263 259 250 238 227 218 214 215 217 220 222 227 232 236 240 245 251 256 261 266 271
246 257 264 270 276 280 282 286 295 307 318 323 325 322 324 318 312 306 299 292 284 275 269 265 257 246 232 221 211 205 207 210 213 218 224 230 235 240 246 252 258 262 267 273
252 260 266 269 273 279 289 301 316 325 328 330 334 331 330 328 323 317 309 300 289 279 271 261 249 233 219 210 200 196 199 203 209 216 222 229 235 242 249 255 260 265 270 275
255 260 262 263 269 279 296 321 336 340 340 342 343 341 339 339 339 334 324 314 305 288 266 243 226 210 201 195 190 190 194 201 208 215 222 230 237 244 251 257 261 268 274 278
253 251 251 258 266 275 307 343 355 357 357 357 356 354 353 354 355 356 354 350 351 334 204 189 186 182 181 182 183 186 191 199 207 214 223 231 238 245 250 257 263 271 276 279
242 240 243 253 260 278 328 360 6 5 5 4 3 5 6 6 8 12 20 32 52 90 124 144 153 160 167 173 178 182 189 197 205 214 223 232 239 242 248 258 266 271 275 280
235 236 239 242 249 271 321 360 6 5 4 4 5 7 8 11 17 23 34 48 70 94 113 128 140 150 159 166 172 179 188 195 204 214 224 234 239 245 254 262 269 275 281 286
230 231 237 239 245 267 310 343 354 356 2 5 7 9 11 15 20 27 38 50 68 89 106 120 131 141 150 158 166 176 187 196 207 217 228 235 242 250 259 269 278 284 287 289
229 231 239 245 254 272 301 324 338 345 353 357 2 5 9 14 20 25 35 49 62 79 99 116 127 137 144 153 167 180 195 206 215 222 230 242 254 267 276 283 285 287 289 291
232 236 244 251 261 272 289 302 318 329 339 347 353 358 5 12 20 24 30 41 56 71 91 111 129 146 159 169 181 193 206 216 226 239 253 266 277 283 285 287 289 291 293 295
240 242 249 256 267 278 286 292 303 315 327 338 347 353 359 6 13 21 30 40 50 67 82 105 130 154 169 184 196 211 227 242 256 270 279 283 285 286 288 290 292 294 296 298
242 245 253 261 268 278 286 291 298 307 317 329 340 349 354 357 2 8 18 30 39 56 68 81 96 116 132 147 170 207 239 259 269 275 279 283 286 289 292 294 296 298 299 301
246 248 255 262 268 274 280 284 291 297 305 317 330 338 346 350 351 354 356 5 23 40 59 73 82 93 100 103 208 273 276 276 278 281 285 288 291 294 296 298 299 301 303 305
248 250 256 262 267 272 275 277 281 286 292 301 311 321 334 339 342 344 344 347 348 7 100 103 108 116 274 280 279 282 282 282 285 288 291 294 296 298 300 301 303 304 305 307
Height
5664 5671 5676 5681 5685 5690 5693 5697 5701 5704 5706 5710 5715 5719 5721 5723 5725 5728 5729 5730 5732 5734 5735 5737 5740 5743 5745 5747 5748 5749 5751 5755 5757 5759 5761 5762 5762 5763 5765 5767 5769 5769 5770 5770
5661 5666 5671 5675 5680 5685 5688 5691 5694 5697 5699 5703 5708 5712 5714 5716 5718 5720 5721 5722 5724 5725 5726 5728 5730 5733 5735 5738 5739 5741 5743 5746 5749 5752 5754 5754 5754 5756 5758 5760 5761 5762 5762 5762
5655 5661 5665 5671 5676 5680 5683 5686 5688 5692 5694 5697 5700 5705 5707 5709 5710 5711 5712 5713 5713 5715 5716 5717 5719 5721 5725 5727 5729 5732 5734 5736 5739 5742 5744 5745 5748 5749 5751 5752 5753 5753 5754 5754
5651 5656 5662 5667 5671 5675 5679 5681 5684 5687 5689 5692 5694 5695 5703 5702 5702 5701 5701 5701 5701 5702 5703 5705 5706 5709 5712 5716 5719 5721 5723 5725 5728 5732 5735 5738 5740 5742 5743 5743 5744 5745 5746 5746
5649 5654 5659 5664 5668 5671 5675 5677 5680 5681 5683 5685 5687 5685 5693 5692 5691 5688 5686 5685 5685 5687 5689 5690 5692 5695 5699 5702 5706 5709 5712 5715 5718 5722 5725 5729 5731 5733 5734 5735 5736 5737 5737 5738
5647 5652 5657 5661 5665 5668 5671 5674 5675 5675 5676 5678 5678 5674 5682 5681 5675 5671 5668 5666 5666 5667 5669 5672 5675 5679 5683 5687 5691 5695 5699 5703 5707 5712 5715 5719 5722 5724 5726 5727 5727 5728 5729 5730
5645 5650 5654 5658 5662 5665 5667 5668 5669 5668 5668 5670 5666 5662 5670 5668 5659 5653 5650 5648 5646 5646 5647 5649 5654 5660 5666 5671 5675 5680 5685 5691 5696 5700 5704 5708 5712 5715 5717 5718 5719 5720 5721 5722
5643 5649 5652 5655 5658 5660 5661 5662 5662 5661 5659 5658 5654 5651 5654 5651 5644 5636 5631 5628 5626 5625 5624 5625 5630 5637 5645 5652 5658 5665 5671 5677 5683 5688 5693 5697 5701 5706 5708 5709 5710 5712 5713 5713
5640 5645 5649 5651 5653 5655 5655 5655 5655 5653 5650 5647 5645 5642 5641 5636 5630 5623 5616 5610 5606 5604 5603 5604 5608 5614 5622 5631 5640 5648 5656 5663 5670 5675 5681 5685 5691 5696 5698 5700 5702 5704 5705 5705
5638 5641 5644 5646 5648 5648 5649 5649 5649 5646 5641 5638 5635 5631 5627 5619 5612 5607 5601 5595 5591 5588 5585 5585 5589 5594 5601 5610 5620 5631 5640 5648 5656 5663 5669 5675 5681 5685 5688 5691 5693 5695 5696 5696
5634 5638 5641 5642 5642 5642 5644 5643 5640 5637 5635 5630 5624 5624 5617 5607 5600 5594 5588 5581 5577 5573 5571 5571 5573 5577 5582 5591 5602 5614 5624 5634 5643 5652 5659 5666 5671 5675 5679 5682 5685 5686 5687 5688
5632 5635 5636 5637 5637 5637 5638 5637 5634 5632 5628 5622 5615 5615 5608 5598 5589 5582 5575 5569 5564 5561 5559 5558 5560 5563 5568 5575 5586 5599 5611 5622 5633 5643 5650 5656 5662 5666 5671 5674 5676 5678 5679 5679
5629 5631 5632 5632 5634 5633 5633 5631 5628 5625 5622 5616 5609 5606 5600 5589 5578 5569 5563 5557 5553 5549 5547 5547 5549 5553 5557 5564 5574 5586 5600 5613 5625 5634 5641 5647 5653 5658 5663 5666 5668 5670 5671 5671
5626 5627 5629 5629 5628 5629 5630 5628 5625 5621 5616 5611 5605 5597 5592 5580 5568 5559 5551 5545 5541 5538 5536 5537 5540 5544 5549 5557 5567 5580 5594 5607 5617 5626 5633 5640 5646 5652 5656 5659 5661 5662 5663 5663
5622 5624 5624 5624 5624 5625 5625 5624 5621 5617 5612 5606 5600 5592 5583 5572 5561 5551 5543 5536 5532 5529 5528 5529 5533 5538 5544 5553 5565 5578 5591 5601 5611 5619 5627 5634 5641 5646 5650 5652 5654 5655 5655 5655
5619 5620 5620 5621 5621 5622 5621 5620 5618 5614 5609 5603 5596 5589 5579 5568 5558 5548 5539 5532 5527 5524 5524 5526 5530 5536 5544 5554 5566 5577 5588 5598 5607 5616 5624 5631 5636 5640 5643 5645 5647 5648 5648 5647
5616 5617 5618 5618 5619 5619 5619 5618 5615 5612 5607 5601 5595 5588 5578 5569 5559 5549 5540 5533 5528 5526 5526 5528 5533 5540 5548 5558 5568 5578 5588 5597 5606 5614 5621 5627 5631 5634 5636 5638 5640 5640 5640 5638
5613 5614 5615 5616 5617 5617 5618 5615 5613 5610 5606 5600 5594 5587 5579 5571 5562 5554 5545 5538 5534 5532 5533 5536 5540 5547 5555 5563 5572 5580 5589 5598 5605 5612 5617 5621 5624 5627 5630 5632 5633 5632 5631 5629
5611 5612 5613 5614 5614 5615 5615 5613 5611 5609 5606 5601 5595 5589 5583 5575 5568 5561 5553 5547 5543 5542 5542 5545 5549 5555 5561 5569 5576 5584 5591 5598 5604 5609 5614 5617 5621 5623 5625 5626 5626 5624 5622 5620
5609 5611 5612 5612 5613 5614 5614 5612 5610 5609 5606 5602 5597 5592 5586 5581 5575 5569 5562 5557 5554 5553 5553 5555 5558 5563 5568 5574 5580 5586 5592 5597 5603 5607 5611 5614 5617 5618 5619 5618 5617 5616 5614 5611
5608 5609 5610 5611 5611 5612 5612 5610 5610 5609 5607 5602 5598 5594 5590 5585 5581 5576 5571 5567 5564 5563 5563 5564 5566 5570 5574 5578 5583 5588 5592 5597 5601 5605 5608 5610 5611 5611 5611 5611 5610 5609 5606 5603
5605 5607 5608 5609 5610 5612 5610 5609 5609 5608 5604 5602 5599 5596 5593 5589 5585 5582 5578 5575 5573 5572 5571 5572 5573 5575 5578 5582 5585 5589 5593 5596 5599 5601 5603 5604 5606 5606 5606 5605 5604 5602 5598 5595
5603 5605 5606 5608 5610 5609 5608 5607 5606 5605 5604 5601 5599 5597 5594 5592 5589 5586 5584 5582 5580 5579 5579 5579 5580 5581 5584 5586 5589 5592 5594 5596 5598 5599 5600 5601 5602 5602 5601 5600 5597 5594 5590 5585
5600 5601 5603 5604 5605 5606 5605 5605 5604 5603 5602 5601 5599 5597 5595 5593 5591 5589 5587 5586 5585 5584 5584 5584 5585 5586 5588 5589 5591 5593 5595 5596 5598 5599 5599 5599 5599 5598 5595 5592 5589 5584 5580 5575
5595 5597 5599 5600 5602 5602 5602 5602 5602 5601 5600 5599 5598 5597 5595 5593 5592 5590 5589 5588 5587 5587 5587 5587 5588 5589 5590 5591 5592 5594 5595 5596 5596 5596 5596 5595 5593 5591 5587 5584 5580 5575 5570 5565
5590 5593 5595 5596 5598 5599 5599 5599 5599 5598 5598 5597 5597 5596 5594 5593 5592 5590 5589 5588 5588 5588 5588 5589 5589 5590 5591 5592 5592 5593 5593 5593 5593 5592 5591 5589 5586 5583 5579 5575 5571 5566 5561 5555